| time (UTC) | temp F | wind direction | speed MPH | gust MPH | rain 1hr in | rain 24hr in | rain mn in | humidity % | barometer mb |
| 20260901225306 | 82 | 220 | 6.0 | 10.0 | 0.00 | 0.00 | 0.00 | 82 | 1012.3 |
| 20260901224306 | 82 | 226 | 3.0 | 9.0 | 0.00 | 0.00 | 0.00 | 83 | 1012.0 |
| 20260901223806 | 82 | 215 | 3.0 | 7.0 | 0.00 | 0.00 | 0.00 | 83 | 1012.0 |
| 20260901221807 | 82 | 212 | 6.0 | 12.0 | 0.00 | 0.00 | 0.00 | 82 | 1012.1 |
| 20260901214806 | 85 | 222 | 4.0 | 12.0 | 0.00 | 0.00 | 0.00 | 78 | 1012.3 |
| 20260901213806 | 85 | 197 | 5.0 | 12.0 | 0.00 | 0.00 | 0.00 | 77 | 1012.3 |
| 20260901211807 | 87 | 205 | 5.0 | 13.0 | 0.00 | 0.00 | 0.00 | 75 | 1012.3 |
| 20260901211307 | 87 | 206 | 4.0 | 12.0 | 0.00 | 0.00 | 0.00 | 76 | 1012.3 |
| 20260901210806 | 87 | 225 | 8.0 | 14.0 | 0.00 | 0.00 | 0.00 | 74 | 1012.4 |
| 20260901210307 | 88 | 209 | 4.0 | 9.0 | 0.00 | 0.00 | 0.00 | 74 | 1012.4 |
| 20260901205307 | 88 | 227 | 5.0 | 12.0 | 0.00 | 0.00 | 0.00 | 74 | 1012.4 |
| 20260901204807 | 88 | 230 | 3.0 | 10.0 | 0.00 | 0.00 | 0.00 | 75 | 1012.5 |
| 20260901203307 | 86 | 213 | 6.0 | 12.0 | 0.00 | 0.00 | 0.00 | 77 | 1012.4 |
| 20260901202806 | 86 | 208 | 6.0 | 13.0 | 0.00 | 0.00 | 0.00 | 76 | 1012.4 |
| 20260901202306 | 87 | 206 | 7.0 | 14.0 | 0.00 | 0.00 | 0.00 | 74 | 1012.4 |
| 20260901200806 | 89 | 219 | 6.0 | 12.0 | 0.00 | 0.00 | 0.00 | 72 | 1012.6 |
| 20260901200306 | 89 | 184 | 5.0 | 9.0 | 0.00 | 0.00 | 0.00 | 73 | 1012.7 |
| 20260901195807 | 88 | 221 | 5.0 | 12.0 | 0.00 | 0.00 | 0.00 | 73 | 1012.7 |
| 20260901195306 | 90 | 199 | 5.0 | 13.0 | 0.00 | 0.00 | 0.00 | 71 | 1012.6 |
| 20260901194807 | 90 | 251 | 3.0 | 7.0 | 0.00 | 0.00 | 0.00 | 72 | 1012.6 |
| 20260901192806 | 89 | 226 | 3.0 | 9.0 | 0.00 | 0.00 | 0.00 | 72 | 1012.6 |
| 20260901192306 | 89 | 238 | 6.0 | 10.0 | 0.00 | 0.00 | 0.00 | 72 | 1012.5 |
| 20260901191807 | 89 | 238 | 7.0 | 14.0 | 0.00 | 0.00 | 0.00 | 72 | 1012.5 |
| 20260901191306 | 89 | 230 | 6.0 | 12.0 | 0.00 | 0.00 | 0.00 | 72 | 1012.6 |
| 20260901190307 | 88 | 238 | 5.0 | 12.0 | 0.00 | 0.00 | 0.00 | 73 | 1012.8 |
| 20260901184806 | 90 | 236 | 4.0 | 9.0 | 0.00 | 0.00 | 0.00 | 70 | 1013.1 |
| 20260901184306 | 90 | 233 | 3.0 | 6.0 | 0.00 | 0.00 | 0.00 | 70 | 1013.2 |
| 20260901183806 | 89 | 233 | 3.0 | 5.0 | 0.00 | 0.00 | 0.00 | 72 | 1013.2 |
| 20260901182306 | 88 | 215 | 2.0 | 6.0 | 0.00 | 0.00 | 0.00 | 74 | 1013.3 |
| 20260901181806 | 88 | 247 | 2.0 | 3.0 | 0.00 | 0.00 | 0.00 | 75 | 1013.4 |
| 20260901180306 | 86 | 197 | 3.0 | 5.0 | 0.00 | 0.00 | 0.00 | 77 | 1013.4 |
| 20260901175806 | 86 | 199 | 2.0 | 5.0 | 0.00 | 0.00 | 0.00 | 77 | 1013.5 |
| 20260901174806 | 87 | 234 | 1.0 | 3.0 | 0.00 | 0.00 | 0.00 | 74 | 1013.6 |
| 20260901174306 | 87 | 261 | 0.0 | 2.0 | 0.00 | 0.00 | 0.00 | 74 | 1013.6 |
| 20260901173806 | 87 | 262 | 1.0 | 3.0 | 0.00 | 0.00 | 0.00 | 74 | 1013.6 |
| 20260901173307 | 87 | 250 | 1.0 | 3.0 | 0.00 | 0.00 | 0.00 | 74 | 1013.6 |
| 20260901171806 | 86 | 280 | 1.0 | 3.0 | 0.00 | 0.00 | 0.00 | 76 | 1013.8 |
| 20260901170806 | 86 | 288 | 0.0 | 0.0 | 0.00 | 0.00 | 0.00 | 76 | 1013.9 |
| 20260901170306 | 86 | 288 | 0.0 | 0.0 | 0.00 | 0.00 | 0.00 | 76 | 1014.1 |
| 20260901165806 | 87 | 231 | 0.0 | 0.0 | 0.00 | 0.00 | 0.00 | 75 | 1014.2 |
| 20260901164807 | 87 | 215 | 1.0 | 3.0 | 0.00 | 0.00 | 0.00 | 76 | 1014.1 |
| 20260901163806 | 89 | 252 | 0.0 | 3.0 | 0.00 | 0.00 | 0.00 | 72 | 1014.3 |
| 20260901162806 | 88 | 246 | 2.0 | 6.0 | 0.00 | 0.00 | 0.00 | 73 | 1014.4 |
| 20260901162306 | 87 | 255 | 2.0 | 5.0 | 0.00 | 0.00 | 0.00 | 73 | 1014.5 |
| 20260901161807 | 87 | 240 | 3.0 | 7.0 | 0.00 | 0.00 | 0.00 | 73 | 1014.6 |
| 20260901161306 | 88 | 221 | 3.0 | 7.0 | 0.00 | 0.00 | 0.00 | 72 | 1014.7 |
| 20260901160806 | 88 | 239 | 3.0 | 10.0 | 0.00 | 0.00 | 0.00 | 74 | 1014.6 |
| 20260901155806 | 86 | 187 | 5.0 | 10.0 | 0.00 | 0.00 | 0.00 | 76 | 1014.6 |
| 20260901155307 | 87 | 210 | 4.0 | 7.0 | 0.00 | 0.00 | 0.00 | 76 | 1014.6 |
| 20260901153806 | 84 | 214 | 3.0 | 7.0 | 0.00 | 0.00 | 0.00 | 79 | 1014.8 |
| 20260901152306 | 84 | 205 | 6.0 | 10.0 | 0.00 | 0.00 | 0.00 | 79 | 1014.7 |
| 20260901151306 | 86 | 202 | 4.0 | 9.0 | 0.00 | 0.00 | 0.00 | 77 | 1014.7 |
| 20260901145806 | 85 | 221 | 4.0 | 8.0 | 0.00 | 0.00 | 0.00 | 78 | 1014.7 |
| 20260901144806 | 84 | 234 | 5.0 | 7.0 | 0.00 | 0.00 | 0.00 | 80 | 1014.6 |
| 20260901141806 | 83 | 234 | 5.0 | 7.0 | 0.00 | 0.00 | 0.00 | 83 | 1014.7 |
| 20260901141307 | 82 | 252 | 3.0 | 6.0 | 0.00 | 0.00 | 0.00 | 84 | 1014.7 |
| 20260901140306 | 81 | 230 | 3.0 | 5.0 | 0.00 | 0.00 | 0.00 | 85 | 1014.7 |
| 20260901133806 | 80 | 236 | 3.0 | 5.0 | 0.00 | 0.00 | 0.00 | 86 | 1014.9 |
| 20260901132807 | 80 | 255 | 3.0 | 6.0 | 0.00 | 0.00 | 0.00 | 87 | 1014.9 |
| 20260901131806 | 79 | 229 | 3.0 | 8.0 | 0.00 | 0.00 | 0.00 | 87 | 1014.9 |
| 20260901130306 | 79 | 227 | 3.0 | 8.0 | 0.00 | 0.00 | 0.00 | 88 | 1015.0 |
| 20260901125309 | 78 | 245 | 3.0 | 5.0 | 0.00 | 0.00 | 0.00 | 89 | 1015.3 |
| 20260901124306 | 78 | 249 | 3.0 | 6.0 | 0.00 | 0.00 | 0.00 | 89 | 1015.3 |
| 20260901123806 | 78 | 242 | 3.0 | 7.0 | 0.00 | 0.00 | 0.00 | 89 | 1015.4 |
| 20260901122306 | 77 | 256 | 3.0 | 6.0 | 0.00 | 0.00 | 0.00 | 89 | 1015.4 |
| 20260901121806 | 77 | 245 | 3.0 | 9.0 | 0.00 | 0.00 | 0.00 | 89 | 1015.4 |
| 20260901121306 | 77 | 244 | 3.0 | 6.0 | 0.00 | 0.00 | 0.00 | 89 | 1015.4 |
| 20260901120806 | 77 | 241 | 3.0 | 7.0 | 0.00 | 0.00 | 0.00 | 89 | 1015.4 |
| 20260901120307 | 77 | 246 | 3.0 | 9.0 | 0.00 | 0.00 | 0.00 | 89 | 1015.4 |
| 20260901114806 | 77 | 247 | 4.0 | 8.0 | 0.00 | 0.00 | 0.00 | 89 | 1015.5 |
| 20260901114306 | 77 | 247 | 3.0 | 6.0 | 0.00 | 0.00 | 0.00 | 90 | 1015.5 |
| 20260901112806 | 76 | 248 | 3.0 | 6.0 | 0.00 | 0.00 | 0.00 | 90 | 1015.3 |
| 20260901112306 | 76 | 249 | 2.0 | 6.0 | 0.00 | 0.00 | 0.00 | 90 | 1015.4 |
| 20260901111309 | 76 | 260 | 3.0 | 5.0 | 0.00 | 0.00 | 0.00 | 90 | 1015.6 |
| 20260901110807 | 76 | 259 | 2.0 | 5.0 | 0.00 | 0.00 | 0.00 | 90 | 1015.6 |
| 20260901110306 | 76 | 250 | 3.0 | 5.0 | 0.00 | 0.00 | 0.00 | 90 | 1015.5 |
| 20260901104307 | 77 | 269 | 3.0 | 6.0 | 0.00 | 0.00 | 0.00 | 90 | 1015.2 |
| 20260901102306 | 77 | 242 | 5.0 | 10.0 | 0.00 | 0.00 | 0.00 | 90 | 1015.0 |
| 20260901101807 | 77 | 252 | 5.0 | 7.0 | 0.00 | 0.00 | 0.00 | 90 | 1014.9 |
| 20260901101306 | 77 | 240 | 3.0 | 7.0 | 0.00 | 0.00 | 0.00 | 90 | 1014.9 |
| 20260901100307 | 77 | 252 | 3.0 | 6.0 | 0.00 | 0.00 | 0.00 | 89 | 1014.9 |
| 20260901095807 | 77 | 244 | 2.0 | 7.0 | 0.00 | 0.00 | 0.00 | 89 | 1014.9 |
| 20260901094806 | 77 | 230 | 2.0 | 3.0 | 0.00 | 0.00 | 0.00 | 89 | 1015.0 |
| 20260901093306 | 77 | 239 | 4.0 | 8.0 | 0.00 | 0.00 | 0.00 | 89 | 1015.2 |
| 20260901092808 | 77 | 233 | 4.0 | 9.0 | 0.00 | 0.00 | 0.00 | 89 | 1015.2 |
| 20260901091806 | 77 | 244 | 3.0 | 7.0 | 0.00 | 0.00 | 0.00 | 89 | 1015.2 |
| 20260901090806 | 77 | 227 | 3.0 | 7.0 | 0.00 | 0.00 | 0.00 | 89 | 1015.1 |
| 20260901090306 | 77 | 237 | 3.0 | 9.0 | 0.00 | 0.00 | 0.00 | 89 | 1015.2 |
| 20260901085806 | 77 | 231 | 4.0 | 7.0 | 0.00 | 0.00 | 0.00 | 89 | 1015.3 |
| 20260901084806 | 77 | 234 | 4.0 | 9.0 | 0.00 | 0.00 | 0.00 | 89 | 1015.4 |
| 20260901083806 | 77 | 235 | 6.0 | 12.0 | 0.00 | 0.00 | 0.00 | 89 | 1015.4 |
| 20260901082806 | 77 | 238 | 5.0 | 9.0 | 0.00 | 0.01 | 0.00 | 89 | 1015.4 |
| 20260901082306 | 77 | 240 | 3.0 | 10.0 | 0.00 | 0.01 | 0.00 | 89 | 1015.3 |
| 20260901080806 | 76 | 235 | 6.0 | 12.0 | 0.00 | 0.01 | 0.00 | 89 | 1015.3 |
| 20260901074806 | 76 | 233 | 4.0 | 9.0 | 0.00 | 0.01 | 0.00 | 89 | 1015.5 |
| 20260901073306 | 76 | 219 | 3.0 | 9.0 | 0.00 | 0.01 | 0.00 | 89 | 1015.6 |
| 20260901072806 | 76 | 224 | 2.0 | 5.0 | 0.00 | 0.01 | 0.00 | 89 | 1015.6 |
| 20260901071306 | 76 | 228 | 2.0 | 6.0 | 0.00 | 0.01 | 0.00 | 89 | 1015.7 |
| 20260901070806 | 76 | 235 | 2.0 | 6.0 | 0.00 | 0.01 | 0.00 | 89 | 1015.8 |
| 20260901070306 | 76 | 235 | 3.0 | 6.0 | 0.00 | 0.01 | 0.00 | 89 | 1015.8 |
| 20260901065306 | 76 | 233 | 2.0 | 7.0 | 0.00 | 0.01 | 0.00 | 89 | 1015.8 |
| 20260901064806 | 76 | 212 | 3.0 | 6.0 | 0.00 | 0.01 | 0.00 | 88 | 1015.8 |
| 20260901064306 | 76 | 227 | 4.0 | 7.0 | 0.00 | 0.01 | 0.00 | 88 | 1015.9 |
| 20260901063305 | 76 | 213 | 2.0 | 6.0 | 0.00 | 0.01 | 0.00 | 88 | 1016.1 |
| 20260901062806 | 76 | 239 | 5.0 | 9.0 | 0.00 | 0.01 | 0.00 | 88 | 1016.1 |
| 20260901062310 | 76 | 218 | 5.0 | 8.0 | 0.00 | 0.01 | 0.00 | 88 | 1016.2 |
| 20260901061306 | 76 | 218 | 3.0 | 7.0 | 0.00 | 0.01 | 0.00 | 88 | 1016.2 |
| 20260901060805 | 76 | 217 | 2.0 | 6.0 | 0.00 | 0.01 | 0.00 | 88 | 1016.4 |
| 20260901060306 | 76 | 207 | 3.0 | 5.0 | 0.00 | 0.01 | 0.00 | 88 | 1016.4 |
| 20260901055806 | 76 | 202 | 2.0 | 5.0 | 0.00 | 0.01 | 0.00 | 87 | 1016.5 |
| 20260901054305 | 76 | 228 | 3.0 | 7.0 | 0.00 | 0.05 | 0.00 | 87 | 1016.7 |
| 20260901051306 | 76 | 214 | 3.0 | 7.0 | 0.00 | 0.16 | 0.00 | 87 | 1016.8 |
| 20260901050306 | 75 | 221 | 3.0 | 9.0 | 0.00 | 0.17 | 0.00 | 87 | 1016.7 |
| 20260901045806 | 75 | 212 | 3.0 | 10.0 | 0.00 | 0.17 | 0.00 | 87 | 1016.8 |
| 20260901045307 | 75 | 207 | 3.0 | 7.0 | 0.00 | 0.17 | 0.00 | 87 | 1016.8 |
| 20260901044306 | 75 | 215 | 3.0 | 6.0 | 0.00 | 0.24 | 0.00 | 87 | 1016.9 |
| 20260901043806 | 75 | 219 | 3.0 | 5.0 | 0.00 | 0.34 | 0.00 | 87 | 1017.0 |
| 20260901041805 | 75 | 207 | 2.0 | 5.0 | 0.00 | 0.54 | 0.00 | 86 | 1017.0 |
| 20260901041306 | 75 | 208 | 3.0 | 6.0 | 0.00 | 0.54 | 0.00 | 86 | 1017.0 |
| 20260901040838 | 75 | 205 | 3.0 | 6.0 | 0.00 | 0.54 | 0.00 | 86 | 1017.1 |
| 20260901033808 | 75 | 198 | 2.0 | 6.0 | 0.00 | 0.54 | 0.54 | 86 | 1017.0 |
| 20260901031305 | 75 | 200 | 3.0 | 6.0 | 0.00 | 0.54 | 0.54 | 86 | 1017.4 |
| 20260901030806 | 75 | 209 | 3.0 | 5.0 | 0.00 | 0.54 | 0.54 | 86 | 1017.3 |
| 20260901025308 | 74 | 199 | 3.0 | 7.0 | 0.00 | 0.54 | 0.54 | 86 | 1017.3 |
| 20260901023306 | 74 | 195 | 4.0 | 7.0 | 0.00 | 0.54 | 0.54 | 86 | 1017.5 |
| 20260901022306 | 74 | 203 | 3.0 | 7.0 | 0.00 | 0.54 | 0.54 | 85 | 1017.5 |
| 20260901021806 | 74 | 203 | 3.0 | 6.0 | 0.00 | 0.54 | 0.54 | 85 | 1017.7 |
| 20260901020306 | 74 | 196 | 3.0 | 5.0 | 0.00 | 0.54 | 0.54 | 85 | 1017.6 |
| 20260901015306 | 74 | 185 | 2.0 | 5.0 | 0.00 | 0.54 | 0.54 | 85 | 1017.5 |
| 20260901014805 | 74 | 205 | 2.0 | 5.0 | 0.00 | 0.54 | 0.54 | 85 | 1017.4 |
| 20260901013806 | 74 | 173 | 2.0 | 3.0 | 0.00 | 0.54 | 0.54 | 84 | 1017.5 |
| 20260901013306 | 74 | 197 | 3.0 | 5.0 | 0.00 | 0.54 | 0.54 | 84 | 1017.7 |
| 20260901012806 | 74 | 190 | 2.0 | 5.0 | 0.00 | 0.54 | 0.54 | 84 | 1017.7 |
| 20260901012306 | 74 | 187 | 2.0 | 3.0 | 0.00 | 0.54 | 0.54 | 84 | 1017.7 |
| 20260901011806 | 74 | 184 | 2.0 | 5.0 | 0.00 | 0.54 | 0.54 | 83 | 1017.7 |
| 20260901011305 | 74 | 204 | 2.0 | 5.0 | 0.00 | 0.54 | 0.54 | 83 | 1017.7 |
| 20260901010805 | 74 | 173 | 2.0 | 3.0 | 0.00 | 0.54 | 0.54 | 83 | 1017.7 |
| 20260901010306 | 74 | 169 | 3.0 | 6.0 | 0.00 | 0.54 | 0.54 | 83 | 1017.6 |
| 20260901005806 | 74 | 193 | 2.0 | 3.0 | 0.00 | 0.54 | 0.54 | 82 | 1017.4 |
| 20260901004806 | 74 | 196 | 2.0 | 5.0 | 0.00 | 0.54 | 0.54 | 82 | 1017.5 |
| 20260901001306 | 74 | 187 | 1.0 | 5.0 | 0.00 | 0.54 | 0.54 | 83 | 1017.3 |
| 20260901000306 | 74 | 182 | 1.0 | 3.0 | 0.00 | 0.54 | 0.54 | 82 | 1017.2 |
| 20260831235306 | 74 | 170 | 2.0 | 5.0 | 0.00 | 0.54 | 0.54 | 82 | 1017.3 |
| 20260831234306 | 74 | 183 | 2.0 | 3.0 | 0.00 | 0.54 | 0.54 | 82 | 1017.4 |
| 20260831233805 | 74 | 191 | 3.0 | 5.0 | 0.00 | 0.54 | 0.54 | 82 | 1017.4 |
| 20260831231307 | 74 | 184 | 1.0 | 3.0 | 0.00 | 0.54 | 0.54 | 82 | 1017.5 |
| 20260831225805 | 74 | 167 | 1.0 | 3.0 | 0.00 | 0.54 | 0.54 | 81 | 1017.5 |